This demonstration page uses our WeatherBlox Daily Observations layout. Learn more.

Left ArrowRight Arrow

Hourly Observations for April 12, 2021

Temp ( °F °C ) Dew Point ( °F °C ) Humidity (%) Winds ( mph kmh ) Pressure ( in mb ) Visibility ( mi km ) Precip ( " mm )
12:53 am 00:53 Cloudy 50 10 45 7.2 83 83 W 6 9 29.62 1003 10 16 N/A
1:53 am 01:53 Cloudy 50 10 45 7.2 83 83 W 8 13 29.62 1003 10 16 N/A
2:53 am 02:53 Cloudy 50 10 45 7.2 83 83 W 8 13 29.63 1003 10 16 N/A
3:44 am 03:44 Cloudy 50 10 45 7.2 83 83 W 7 11 29.65 1004 10 16 N/A
3:53 am 03:53 Cloudy 50 10 46 7.8 86 86 W 6 9 29.64 1004 10 16 N/A
4:05 am 04:05 Cloudy 50 10 46 7.8 86 86 W 6 9 29.65 1004 10 16 N/A
4:53 am 04:53 Cloudy 50 10 47 8.3 89 89 W 6 9 29.65 1004 10 16 N/A
5:22 am 05:22 Cloudy 50 10 47 8.3 89 89 W 7 11 29.67 1005 10 16 N/A
5:53 am 05:53 Cloudy with Light Rain 50 10 47 8.3 89 89 W 5 7 29.67 1005 10 16 0.00 0.00
6:07 am 06:07 Cloudy with Light Rain 50 10 48 8.9 93 93 WSW 3 6 29.68 1005 10 16 0.01 0.25
6:53 am 06:53 Cloudy 50 10 48 8.9 93 93 WSW 3 6 29.70 1006 10 16 0.01 0.25
7:53 am 07:53 Cloudy 50 10 48 8.9 93 93 WSW 6 9 29.72 1006 10 16 N/A
8:53 am 08:53 Cloudy 52 11.1 49 9.4 89 89 W 5 7 29.74 1007 10 16 N/A
9:53 am 09:53 Cloudy 53 11.7 49 9.4 86 86 WSW 6 9 29.76 1008 10 16 N/A
10:53 am 10:53 Cloudy 54 12.2 50 10 87 87 W 8 13 29.77 1008 10 16 N/A
11:53 am 11:53 Cloudy 55 12.8 49 9.4 80 80 W 8 13 29.79 1009 10 16 N/A
12:53 pm 12:53 Cloudy 56 13.3 48 8.9 75 75 W 10 17 29.81 1010 10 16 N/A
1:20 pm 13:20 Cloudy 59 15 49 9.4 69 69 W 7 11 29.81 1009 10 16 N/A
1:53 pm 13:53 Cloudy 60 15.6 49 9.4 67 67 W 8 13 29.81 1010 10 16 N/A
2:53 pm 14:53 Cloudy 63 17.2 49 9.4 60 60 WNW 14 22 29.83 1010 10 16 N/A
3:53 pm 15:53 Mostly Cloudy 63 17.2 48 8.9 58 58 WNW 13 20 29.84 1011 10 16 N/A
4:53 pm 16:53 Mostly Sunny 65 18.3 45 7.2 49 49 WNW 15 24 29.85 1011 10 16 N/A
5:53 pm 17:53 Partly Cloudy 65 18.3 44 6.7 47 47 W 9 15 29.86 1011 10 16 N/A
6:53 pm 18:53 Partly Cloudy 63 17.2 44 6.7 50 50 WNW 12 19 29.88 1012 10 16 N/A
7:53 pm 19:53 Partly Cloudy 61 16.1 44 6.7 54 54 NW 7 11 29.90 1013 10 16 N/A
8:53 pm 20:53 Mostly Clear 53 11.7 47 8.3 80 80 NW 3 6 29.93 1014 10 16 N/A
9:53 pm 21:53 Clear 50 10 46 7.8 86 86 N N/A 29.96 1015 10 16 N/A
10:53 pm 22:53 Clear 47 8.3 44 6.7 90 90 N N/A 29.98 1015 10 16 N/A
11:53 pm 23:53 Clear 45 7.2 44 6.7 97 97 N N/A 30.00 1016 10 16 N/A

Powered by AerisWeather